Retour au catalogue

OPS 4682 DEB

ActifPO
NORAD 38378·DEBRIS·🇺🇸 United States

Lancé Apr 3, 1965 depuis Vandenberg Space Force Base

Loading…

Prochains Passages (prochaines 24 heures)

TLE

FraisSource: Space-Track

Époque: Sep 12, 2026, 16:09 UTC

1 38378U 65027CF  26255.67316590  .00000271  00000-0  83289-3 0  9999
2 38378  90.2300 341.2320 0032271 313.6829  46.1621 13.03311241630409

Suivez OPS 4682 DEB en temps réel avec AllMySat

Download on the App Store